Regional Weather Roundup
Issued by NWS Charleston, SC

Current Version | Previous Version | Graphics & Text | Print | Product List | Glossary On
Versions: 1 2 3 4 5 6 7 8 9 10 11 12 13 14 15 16 17 18 19 20 21 22 23 24 25 26 27 28 29 30 31 32 33 34 35 36 37 38 39 40 41 42 43 44 45 46 47 48 49 50
000 ASUS42 KCHS 310410 RWRCHS REGIONAL WEATHER ROUNDUP NATIONAL WEATHER SERVICE CHARLESTON SC 1200 AM EDT FRI OCT 31 2014 NOTE: "FAIR" INDICATES FEW OR NO CLOUDS BELOW 12,000 FEET WITH NO SIGNIFICANT WEATHER AND/OR OBSTRUCTIONS TO VISIBILITY. NOT ALL STATIONS ARE QUALITY CONTROLLED BY THE NATIONAL WEATHER SERVICE. USE DATA WITH CAUTION...ESPECIALLY DEWPOINT OBSERVATIONS. SCZ027-030-031-034>040-042>050-310500- ...SOUTH CAROLINA... CITY SKY/WX TMP DP RH WIND PRES REMARKS N CHARLESTON PTCLDY 58 54 86 N3 29.92F WATERFRONT PRK N/A 64 N/A N/A N8 N/A FORT JOHNSON NOT AVBL JOHNS ISLAND CLEAR 61 61 100 CALM 29.93S PINOPOLIS NOT AVBL MONCKS CORNER FAIR 52 52 100 CALM 29.93F SUMMERVILLE FAIR 52 52 100 CALM 29.95S BEAUFORT MCAS PTCLDY 59 56 89 CALM 29.89F BEAUFORT ARPT FAIR 59 57 94 CALM 29.93S HILTON HEAD IS NOT AVBL GEORGETOWN NOT AVBL WALTERBORO CLEAR 52 N/A N/A CALM 29.94F ORANGEBURG CLEAR 53 49 86 CALM 29.95F BARNWELL FAIR 50 48 93 CALM 29.95F AIKEN FAIR 48 45 87 CALM 29.98F MANNING FAIR 52 N/A N/A CALM 29.95F KINGSTREE NOT AVBL COLUMBIA CLEAR 49 45 86 CALM 29.95F SUMTER CLEAR 52 44 74 NE6 29.94F FLORENCE CLEAR 53 46 77 NE6 29.96S MYRTLE BEACH MOCLDY 59 52 77 N7 29.94F N MYRTLE BEACH CLEAR 54 51 90 NE6 29.94F $$ GAZ063-065-086>088-099>101-113>116-118-119-134-136>141-150-310500- ...GEORGIA... CITY SKY/WX TMP DP RH WIND PRES REMARKS SAVANNAH ARPT CLEAR 60 57 89 N3 29.93F HUNTER AAF CLEAR 62 58 87 N3 29.91S FORT STEWART CLEAR 56 53 92 CALM 29.91F STATESBORO NOT AVBL SYLVANIA CLEAR 58 57 96 CALM 29.94F CLAXTON FAIR 52 52 100 CALM 29.94S THOMSON CLEAR 46 46 100 CALM 30.00F AUGUSTA-BUSH CLEAR 46 44 93 CALM 29.95F AUGUSTA-DANIEL CLEAR 58 41 53 N6 29.96S SWAINSBORO FAIR 52 48 87 MISG 29.96S VIDALIA CLEAR 55 48 76 N5 29.95S ALMA CLEAR 52 48 86 CALM 29.93F WAYCROSS CLEAR 58 55 89 CALM 29.93S JESUP FAIR 57 55 94 CALM 29.93S BRUNSWICK CLEAR 63 61 94 CALM 29.91F SAINT SIMONS CLEAR 64 61 90 N3 29.90F $$ SCZ027-028-034-036>038-045-046-048>050-GAZ119-141-310500- ...LAKE AND SUPPLEMENTAL COASTAL OBSERVATIONS... STATION/POSITION TIME TEMP WIND PRES WAVE SWELL AIR SEA DIR/SP/G HT/PER HT/PER/DIR (UTC) (F) (DEG/KT/KT) (MB) (FT/S) (FT/S/D) UPR LAKE MARION NOT AVBL WINYAH BAY 0300 60 360/ 5 1013.0S LAKE MURRAY 0300 58 CALM / 1 1013.9F ACE BASIN NERRS 0300 57 CALM 1013.0S FORT PULASKI 0400 65 30/ 10/ 13 1013.5S SAPELO ISLAND NOT AVBL $$ ANZ835-935-AMZ111-154-330-350-352-354-374-450-454-472-310500- ...C-MAN AND BUOY OBSERVATIONS... STATION/POSITION TIME TEMP WIND PRES WAVE SWELL AIR SEA DIR/SP/G HT/PER HT/PER/DIR (UTC) (F) (DEG/KT/KT) (MB) (FT/S) (FT/S/D) FOLLY BEACH CMAN 0300 65 10/ 10/ 12 1013.9F BUOY 41004 0400 70 77 30/ 16/ 19 1011.3F 4/ 6 2/ 9 BUOY 41008 0400 70 74 50/ 10/ 12 1012.4F 2/ 7 2/130/ 7 5E ST. MARYS GA 0400 76 N/A 2/ 7 FRYING PAN BUOY 0400 67 73 50/ 17/ 21 1013.0F 4/ 6 2/200/10 BUOY 41025 0400 65 20/ 19/ 25 1013.1F 5/ 6 CAPE LOOKOUT NC 0300 61 20/ 13/ 16 1014.1F BUOY 41002 0350 75 77 190/ 4/ 6 1011.8F 3/ 7 3/130/ 7 BUOY 41010 0400 78 82 200/ 4/ 6 1011.8F 3/ 8 3/120/ 8 BUOY 41012 NOT AVBL ST AUGUSTINE FL 0400 65 300/ 5/ 6 1013.0F CAPERS NEARSHORE 0300 65 20/ 10/ 12 N/A FRIPP NEARSHORE NOT AVBL $$

USA.gov is the U.S. government's official web portal to all federal, state and local government web resources and services.